Location: West Sayville
(40.7279°N, 73.0976°W)
Time: 04:41:55
(UTC+00:00)

Cosmos 1939 Rocket - Pass Details

Date: 29 October 2020
Orbit: 532 x 584 km, 97.4° (Epoch: 29 November)

Event Time Altitude Azimuth Distance (km) Brightness Sun altitude
Rises 23:16:00 0° 175° (S) 2,730 6.4 -16.5°
Reaches altitude 10° 23:18:10 10° 179° (S) 1,831 5.5 -16.9°
Maximum altitude 23:22:04 60° 259° (W) 633 3.4 -17.6°
Drops below altitude 10° 23:25:57 10° 340° (NNW) 1,817 5.7 -18.4°
Sets 23:28:06 0° 345° (NNW) 2,707 6.5 -18.8°
